[[{"header":{"parameterUnit":"m.s-1","parameterCategory":2,"la1":30.2991,"la2":30.254,"lo1":-89.0895,"lo2":-89.0444,"dy":0.0017,"dx":0.0017,"nx":28,"ny":28,"refTime":"2024-03-31T03:00:00:Z","depth":"0","parameterNumber":2,"parameterNumberName":"U-component_of_CURRENTS"},"data":[0,0,0,0,0,0,0,0,0,0,0,0,0,0,0,0,0,0,0,0,0,0,0,0,0,0,0,0,0,0,0,0,0,0,0,0,0,0,0,0,0,0,0,0,0,0,0,0,0,0,0,0,0,0,0,0,0,0,0.1613,0.1613,0,0.1627,0.1627,0.1627,0.1626,0.1626,0.1626,0.1626,0.1618,0.1618,0.1618,0,0,0,0,0,0,0,0,0,0,0,0,0,0.1572,0.1573,0.1613,0.1613,0.1613,0.1627,0.1627,0.1627,0.1626,0.1626,0.1626,0.1626,0.1619,0.1618,0.1618,0,0,0,0,0,0,0,0,0,0,0,0,0,0.1586,0.1573,0.1613,0.1616,0.1617,0.1627,0.1627,0.1627,0.1626,0.1626,0.1626,0.1626,0.1619,0.1618,0.1618,0.1616,0,0,0.1617,0.1617,0,0,0,0,0,0,0,0,0.1586,0.1588,0.1615,0.1616,0.1617,0.1627,0.161,0.1623,0.1626,0.162,0.1626,0.1626,0.1621,0.162,0.162,0.1616,0.1615,0.1617,0.1617,0.1617,0.1617,0,0,0,0,0,0,0,0.1585,0.1587,0.1616,0.1616,0.1617,0.1614,0.1615,0.1612,0.1618,0.1621,0.1621,0.1627,0.1621,0.162,0.162,0.1615,0.1617,0.1617,0.1617,0.1616,0.1667,0.1669,0,0,0,0,0,0,0.1588,0.1586,0.1615,0.1617,0.1604,0.1614,0.1616,0.1622,0.1618,0.1619,0.1627,0.1627,0.1621,0.162,0.1619,0.1663,0.1617,0.1616,0.1616,0.1666,0.1668,0.1669,0,0,0,0,0,0,0.1587,0.1591,0.1615,0.1603,0.1607,0.1615,0.1621,0.1622,0.1629,0.1624,0.1623,0.1634,0.1621,0.162,0.1635,0.166,0.1616,0.1616,0.1664,0.1666,0.1668,0.1719,0,0,0,0,0,0,0.1586,0.159,0.1594,0.1604,0.1608,0.1636,0.1622,0.1622,0.1633,0.1633,0.163,0.1629,0.1621,0.1636,0.1635,0.1659,0.1616,0.1662,0.1665,0.1668,0.1716,0.1723,0.1729,0,0,0,0,0,0.1585,0.1592,0.1594,0.1598,0.1613,0.1637,0.1639,0.1643,0.1634,0.1646,0.1646,0.1629,0.1654,0.1637,0.1635,0.166,0.1661,0.1664,0.1667,0.1713,0.1722,0.1729,0,0,0,0,0,0,0.1575,0.1593,0.1596,0.1607,0.1628,0.1638,0.1647,0.1648,0.1656,0.1653,0.1643,0.1643,0.1668,0.1658,0.164,0.1686,0.1657,0.166,0.1692,0.17,0.1707,0.1701,0.1615,0,0,0,0,0,0.1575,0.1586,0.1606,0.1617,0.1628,0.1638,0.1646,0.1651,0.166,0.1663,0.1663,0.1666,0.168,0.1685,0.1691,0.171,0.175,0.1728,0.1735,0.1741,0.1738,0.1809,0.1822,0.1681,0.1681,0.168,0,0,0.1573,0.1586,0.159,0.1616,0.1628,0.1649,0.1642,0.1662,0.1679,0.1661,0.1681,0.1687,0.1691,0.1718,0.1729,0.1714,0.1817,0.1745,0.175,0.1743,0.1814,0.1828,0.184,0.1683,0.1683,0.1682,0,0,0.1578,0.1589,0.1601,0.1622,0.1648,0.1659,0.1668,0.1687,0.1697,0.1718,0.1717,0.174,0.1749,0.1765,0.1772,0.182,0.185,0.1826,0.1854,0.1924,0.1936,0.1947,0.2077,0.2099,0.1829,0.1829,0.1829,0,0.1574,0.1593,0.161,0.1632,0.1649,0.1666,0.1687,0.1703,0.1725,0.1738,0.1732,0.1771,0.1773,0.1815,0.1834,0.1834,0.1899,0.1821,0.1934,0.1945,0.1955,0.2085,0.2108,0.1832,0.1832,0.1831,0.1831,0,0.1591,0.1609,0.1621,0.1654,0.1676,0.1699,0.1728,0.175,0.176,0.1776,0.1818,0.1831,0.1855,0.1868,0.1862,0.1937,0.1974,0.1935,0.1911,0.1972,0.2106,0.213,0.1836,0.1835,0.1834,0.1834,0,0,0.157,0.1621,0.1625,0.1645,0.1689,0.1709,0.1746,0.1785,0.1816,0.1838,0.1887,0.1907,0.1918,0.1927,0.1936,0.1991,0.214,0.1996,0.1999,0.2126,0.2356,0.2342,0.2367,0.2123,0.2126,0.2128,0.2444,0,0.1578,0.1617,0.1643,0.1682,0.1705,0.1739,0.1773,0.1811,0.1849,0.1905,0.1929,0.1982,0.1942,0.1977,0.2019,0.2111,0.2194,0.2061,0.2277,0.2285,0.2262,0.2389,0.2299,0.2566,0.2467,0.2471,0.2474,0,0.1583,0.1611,0.1646,0.17,0.1713,0.1737,0.1801,0.184,0.1918,0.1952,0.2,0.2039,0.2133,0.2086,0.2267,0.219,0.2276,0.234,0.2353,0.2326,0.2311,0.2477,0.2613,0.2525,0.251,0.2507,0.2504,0,0.1558,0.1612,0.1639,0.1657,0.172,0.174,0.1776,0.1847,0.19,0.2003,0.2073,0.2153,0.2249,0.2329,0.2457,0.2385,0.2679,0.2595,0.2672,0.2676,0.2631,0.2624,0.2695,0.2727,0.2726,0.2726,0.2725,0,0.1555,0.1577,0.1627,0.1642,0.1676,0.1728,0.1785,0.1833,0.1938,0.2028,0.2099,0.2211,0.2313,0.248,0.2541,0.2714,0.2759,0.2718,0.2753,0.2653,0.2644,0.2585,0.2531,0.2737,0.2735,0.2732,0.273,0,0.1526,0.1561,0.1592,0.1648,0.1664,0.169,0.1783,0.1842,0.1945,0.2081,0.2133,0.2322,0.2529,0.2652,0.2856,0.2862,0.2929,0.3044,0.2952,0.2967,0.2865,0.2817,0.284,0.2759,0.3171,0.3172,0.3173,0,0.1518,0.1529,0.1579,0.1605,0.1629,0.168,0.1727,0.1823,0.1907,0.215,0.223,0.2481,0.2624,0.2937,0.3026,0.3184,0.3036,0.3182,0.2976,0.2885,0.286,0.2702,0.2619,0.2992,0.2992,0.2992,0.2992,0,0.1503,0.1516,0.1547,0.159,0.1632,0.1684,0.1766,0.1827,0.1982,0.2108,0.2325,0.2466,0.2771,0.2899,0.3109,0.3168,0.3003,0.3176,0.31,0.2747,0.2565,0.2495,0.2805,0.2989,0.2989,0.2989,0.299,0.299,0.1495,0.1508,0.1551,0.1595,0.1637,0.1694,0.1722,0.1832,0.1949,0.2135,0.2327,0.2499,0.2737,0.2993,0.3043,0.3061,0.2999,0.2969,0.2945,0.2813,0.2624,0.2948,0.3127,0.3128,0.3129,0.313,0.313,0,0.1499,0.1526,0.1564,0.1609,0.164,0.1671,0.1758,0.1783,0.1885,0.2075,0.2239,0.2487,0.2632,0.2775,0.2915,0.2855,0.2688,0.2785,0.2533,0.2479,0.2816,0.2688,0.2754,0.2754,0.2754,0.2754,0.2754,0.2754,0.151,0.1545,0.1566,0.161,0.1635,0.1654,0.1686,0.1716,0.1812,0.1965,0.21,0.2266,0.2522,0.2715,0.2709,0.2654,0.2437,0.2363,0.2331,0.2554,0.2567,0.2579,0.2444,0.2458,0.2457,0.1876,0.1871,0.1868]},{"header":{"parameterUnit":"m.s-1","parameterCategory":2,"la1":30.2991,"la2":30.254,"lo1":-89.0895,"lo2":-89.0444,"dy":0.0017,"dx":0.0017,"nx":28,"ny":28,"refTime":"2024-03-31T03:00:00:Z","depth":"0","parameterNumber":3,"parameterNumberName":"V-component_of_CURRENTS"},"data":[0,0,0,0,0,0,0,0,0,0,0,0,0,0,0,0,0,0,0,0,0,0,0,0,0,0,0,0,0,0,0,0,0,0,0,0,0,0,0,0,0,0,0,0,0,0,0,0,0,0,0,0,0,0,0,0,0,0,0.0037,0.0036,0,-0.0027,-0.0027,-0.0028,-0.007,-0.007,-0.0071,-0.0071,-0.0169,-0.0171,-0.0174,0,0,0,0,0,0,0,0,0,0,0,0,0,0.0107,0.0106,0.0037,0.0036,0.0035,-0.0027,-0.0027,-0.0028,-0.007,-0.007,-0.0071,-0.0071,-0.0168,-0.0171,-0.0174,0,0,0,0,0,0,0,0,0,0,0,0,0,0.0063,0.0106,0.0037,0.0007,0.0004,-0.0026,-0.0027,-0.0029,-0.007,-0.007,-0.0071,-0.0071,-0.0167,-0.0171,-0.0174,-0.0188,0,0,-0.0185,-0.0187,0,0,0,0,0,0,0,0,0.0066,0.0061,0.0012,0.0009,0.0005,-0.0041,-0.0039,-0.0084,-0.007,-0.0042,-0.0071,-0.0071,-0.0129,-0.0136,-0.0146,-0.0193,-0.0197,-0.0186,-0.0188,-0.0189,-0.019,0,0,0,0,0,0,0,0.0069,0.0063,0.0012,0.0012,0.0007,-0.0008,-0.0015,-0.0047,-0.0083,-0.0044,-0.0048,-0.0054,-0.0131,-0.0143,-0.0149,-0.0198,-0.0185,-0.0189,-0.0191,-0.0192,-0.0264,-0.0264,0,0,0,0,0,0,0.0078,0.0066,0.0014,0.001,0.0035,-0.0009,-0.0017,-0.0026,-0.0082,-0.0091,-0.0054,-0.0056,-0.0137,-0.0145,-0.0153,-0.017,-0.0189,-0.0193,-0.0195,-0.0265,-0.0264,-0.0264,0,0,0,0,0,0,0.008,0.0074,0.0016,0.0037,0.0028,-0.001,-0.002,-0.0027,-0.0041,-0.0089,-0.0099,-0.0061,-0.0137,-0.0148,-0.0184,-0.0175,-0.0194,-0.0197,-0.0265,-0.0265,-0.0264,-0.0207,0,0,0,0,0,0,0.0082,0.0075,0.0073,0.0037,0.0027,0.0005,-0.002,-0.0028,-0.0044,-0.0047,-0.0098,-0.0108,-0.0138,-0.0178,-0.0187,-0.018,-0.02,-0.0265,-0.0265,-0.0264,-0.0209,-0.0205,-0.0201,0,0,0,0,0,0.0085,0.0085,0.0073,0.0067,0.0025,0.0005,-0.0001,-0.003,-0.0044,-0.0045,-0.0084,-0.0106,-0.0182,-0.0181,-0.0192,-0.0185,-0.0265,-0.0265,-0.0264,-0.0211,-0.0206,-0.0201,0,0,0,0,0,0,0.0116,0.008,0.0066,0.0056,0.0035,-0.0002,-0.0005,-0.0027,-0.0057,-0.0061,-0.011,-0.0122,-0.0146,-0.0176,-0.0174,-0.0205,-0.0225,-0.0227,-0.0181,-0.0176,-0.0172,-0.0164,-0.0203,0,0,0,0,0,0.0123,0.0114,0.0079,0.0073,0.0065,0.003,0.0018,0.0,-0.0032,-0.0046,-0.0082,-0.012,-0.0152,-0.0172,-0.0202,-0.0224,-0.0232,-0.0226,-0.0221,-0.0218,-0.0218,-0.0235,-0.0232,-0.0263,-0.0263,-0.0263,0,0,0.0134,0.0113,0.0108,0.008,0.0062,0.0055,0.0023,0.0011,0.0004,-0.0052,-0.0071,-0.0107,-0.0155,-0.0176,-0.0189,-0.0201,-0.0205,-0.0217,-0.0214,-0.0217,-0.0234,-0.0231,-0.0229,-0.0262,-0.0262,-0.0262,0,0,0.0157,0.0135,0.0136,0.0122,0.0098,0.0078,0.0076,0.0043,0.0027,0.0003,-0.0037,-0.007,-0.0117,-0.015,-0.0174,-0.0168,-0.0181,-0.0173,-0.015,-0.0165,-0.0163,-0.0161,-0.0127,-0.0123,-0.0173,-0.0173,-0.0173,0,0.0173,0.0163,0.0136,0.0135,0.0124,0.0091,0.0091,0.0075,0.0034,0.0017,0.0007,-0.0067,-0.0104,-0.0142,-0.0139,-0.0158,-0.0153,-0.0163,-0.0159,-0.0157,-0.0156,-0.0123,-0.0119,-0.017,-0.017,-0.0171,-0.0171,0,0.0194,0.0187,0.019,0.0175,0.0163,0.0159,0.0131,0.0118,0.0095,0.0071,0.0034,-0.0016,-0.0061,-0.0075,-0.0107,-0.0122,-0.0113,-0.0148,-0.0168,-0.015,-0.0115,-0.0112,-0.0166,-0.0167,-0.0168,-0.0168,0,0,0.0224,0.0206,0.0207,0.0202,0.018,0.0171,0.0165,0.0139,0.0137,0.0097,0.0093,0.0024,-0.0002,-0.0031,-0.0072,-0.0092,-0.0068,-0.0113,-0.0115,-0.0071,-0.0062,-0.0047,-0.0041,-0.0103,-0.0103,-0.0103,-0.0026,0,0.0246,0.0251,0.0234,0.0238,0.0235,0.0204,0.0201,0.0176,0.016,0.0156,0.0098,0.009,0.0016,0.0015,-0.0026,-0.0052,-0.0064,-0.0084,-0.0093,-0.0093,-0.0077,-0.004,-0.0069,-0.0004,-0.0023,-0.0022,-0.0022,0,0.0266,0.0264,0.0271,0.0256,0.0253,0.0254,0.0238,0.0236,0.0219,0.0213,0.0181,0.0157,0.0127,0.0075,0.0017,0.0011,-0.0023,-0.0049,-0.0048,-0.0057,-0.0073,-0.0034,0.0003,-0.0168,-0.0017,-0.0017,-0.0018,0,0.0287,0.0285,0.0288,0.0284,0.0271,0.0267,0.0264,0.0249,0.0282,0.0274,0.0331,0.0239,0.0285,0.0174,0.0129,0.0076,0.0098,0.0016,-0.0003,-0.0,-0.0041,-0.0042,-0.017,-0.0026,-0.0026,-0.0026,-0.0026,0,0.0305,0.0307,0.03,0.0302,0.0314,0.0296,0.0327,0.0313,0.036,0.0455,0.0379,0.0475,0.0318,0.0319,0.0188,0.0137,0.0145,0.0017,0.0014,-0.0017,-0.0017,-0.0181,-0.0257,-0.0023,-0.0024,-0.0024,-0.0025,0,0.0322,0.0317,0.0325,0.0321,0.0324,0.0338,0.04,0.0452,0.0485,0.0627,0.0658,0.0695,0.0698,0.0548,0.0442,0.0289,0.0102,0.0163,0.0169,0.0162,-0.0081,-0.0151,-0.0227,-0.0302,0.0118,0.0119,0.012,0,0.0331,0.0336,0.0349,0.0384,0.0388,0.0422,0.0474,0.0504,0.0614,0.0796,0.0911,0.0967,0.104,0.0883,0.06,0.0374,0.0207,0.0212,0.0066,-0.0083,-0.0164,-0.0216,-0.0279,0.0059,0.0059,0.0059,0.0059,0,0.0362,0.0367,0.0385,0.0465,0.0521,0.0596,0.0697,0.081,0.0927,0.1064,0.1315,0.1387,0.1247,0.1028,0.0702,0.0508,0.0078,0.0205,0.0028,-0.0235,-0.0278,-0.0354,0.0033,0.0059,0.0059,0.0059,0.0059,0.0059,0.0403,0.0438,0.0499,0.0581,0.0657,0.0827,0.0945,0.1106,0.1313,0.1586,0.1621,0.1741,0.137,0.0909,0.0649,0.01,0.0107,-0.0105,-0.0171,-0.0205,-0.0314,0.0104,0.0129,0.013,0.013,0.013,0.0131,0,0.0498,0.0559,0.0635,0.0767,0.0907,0.0922,0.1149,0.1308,0.1604,0.1774,0.1958,0.1786,0.134,0.084,0.0117,-0.0235,-0.0393,-0.0424,-0.0553,-0.0599,-0.0253,-0.0299,-0.0339,-0.0339,-0.0339,-0.0338,-0.0338,-0.0338,0.0565,0.068,0.0735,0.0999,0.1103,0.1328,0.1484,0.1696,0.1846,0.2049,0.2057,0.2043,0.1605,0.0408,-0.0425,-0.0619,-0.0853,-0.0878,-0.0977,-0.0809,-0.0787,-0.0766,-0.0832,-0.0982,-0.0983,-0.1331,-0.1334,-0.1337]}],[{"header":{"parameterUnit":"m.s-1","parameterCategory":2,"la1":30.2991,"la2":30.254,"lo1":-89.0895,"lo2":-89.0444,"dy":0.0017,"dx":0.0017,"nx":28,"ny":28,"refTime":"2024-03-31T03:00:00:Z","depth":"2","parameterNumber":2,"parameterNumberName":"U-component_of_CURRENTS"},"data":[0,0,0,0,0,0,0,0,0,0,0,0,0,0,0,0,0,0,0,0,0,0,0,0,0,0,0,0,0,0,0,0,0,0,0,0,0,0,0,0,0,0,0,0,0,0,0,0,0,0,0,0,0,0,0,0,0,0,0.156,0.1561,0,0.1576,0.1576,0.1576,0.1577,0.1577,0.1577,0.1577,0.1586,0.1586,0.1586,0,0,0,0,0,0,0,0,0,0,0,0,0,0.1524,0.1524,0.156,0.1561,0.1561,0.1576,0.1576,0.1576,0.1577,0.1577,0.1577,0.1577,0.1586,0.1586,0.1586,0,0,0,0,0,0,0,0,0,0,0,0,0,0.1538,0.1524,0.156,0.1565,0.1566,0.1576,0.1576,0.1576,0.1577,0.1577,0.1577,0.1577,0.1586,0.1586,0.1586,0.1589,0,0,0.1587,0.1588,0,0,0,0,0,0,0,0,0.1537,0.1539,0.1564,0.1565,0.1565,0.1576,0.1567,0.1581,0.1577,0.1571,0.1577,0.1577,0.1583,0.1584,0.1584,0.1589,0.1589,0.1588,0.1588,0.1588,0.1588,0,0,0,0,0,0,0,0.1536,0.1538,0.1565,0.1564,0.1565,0.1564,0.1566,0.1569,0.1575,0.1571,0.1572,0.1577,0.1583,0.1584,0.1584,0.159,0.1588,0.1588,0.1588,0.1588,0.1651,0.1652,0,0,0,0,0,0,0.1538,0.1537,0.1564,0.1565,0.1553,0.1565,0.1567,0.1571,0.1575,0.1577,0.1577,0.1577,0.1583,0.1584,0.1585,0.1635,0.1588,0.1588,0.1588,0.1649,0.1651,0.1653,0,0,0,0,0,0,0.1538,0.1541,0.1564,0.1553,0.1556,0.1565,0.1571,0.1572,0.1582,0.158,0.1581,0.1588,0.1583,0.1584,0.1606,0.1633,0.1588,0.1589,0.1648,0.165,0.1652,0.1705,0,0,0,0,0,0,0.1536,0.154,0.1546,0.1553,0.1557,0.1587,0.1571,0.1572,0.1586,0.1586,0.159,0.159,0.1583,0.1605,0.1606,0.1633,0.1589,0.1646,0.1649,0.1651,0.1701,0.1709,0.1715,0,0,0,0,0,0.1535,0.1544,0.1546,0.155,0.1564,0.1588,0.159,0.1594,0.1587,0.1602,0.1603,0.159,0.1623,0.1607,0.1607,0.1635,0.1644,0.1648,0.1651,0.1698,0.1707,0.1715,0,0,0,0,0,0,0.153,0.1545,0.1548,0.1561,0.1581,0.1589,0.16,0.1602,0.1614,0.1612,0.1605,0.1606,0.1636,0.1629,0.1611,0.1663,0.1633,0.1637,0.1669,0.1678,0.1684,0.1682,0.1589,0,0,0,0,0,0.1532,0.1543,0.1562,0.1574,0.1584,0.1594,0.1603,0.1609,0.1619,0.1624,0.1625,0.1631,0.1649,0.1658,0.1666,0.1691,0.172,0.1712,0.1718,0.1724,0.1724,0.1797,0.181,0.1663,0.1663,0.1663,0,0,0.1531,0.1543,0.1548,0.1574,0.1586,0.1606,0.1599,0.162,0.1638,0.1623,0.1644,0.1653,0.1661,0.1692,0.1705,0.1691,0.1788,0.1728,0.1733,0.173,0.1802,0.1816,0.1829,0.1666,0.1665,0.1665,0,0,0.1538,0.155,0.1562,0.1583,0.161,0.162,0.1631,0.1648,0.1659,0.1683,0.1682,0.171,0.1723,0.1742,0.1752,0.1801,0.182,0.1806,0.184,0.1911,0.1924,0.1935,0.2018,0.2036,0.1811,0.1811,0.1811,0,0.1537,0.1557,0.1572,0.1594,0.1614,0.1629,0.1653,0.1668,0.1689,0.1706,0.1697,0.1743,0.1748,0.1798,0.1817,0.1817,0.1865,0.1807,0.1921,0.1932,0.1943,0.2025,0.2044,0.1814,0.1813,0.1813,0.1813,0,0.1552,0.1576,0.1588,0.1621,0.1644,0.1671,0.1696,0.1718,0.173,0.1746,0.1794,0.1808,0.1839,0.1851,0.1847,0.1928,0.1942,0.1921,0.19,0.1961,0.2044,0.2063,0.1818,0.1817,0.1816,0.1815,0,0,0.1533,0.1588,0.1593,0.1618,0.1663,0.1683,0.1721,0.1764,0.1796,0.1817,0.1871,0.1897,0.191,0.1922,0.1932,0.1988,0.2114,0.199,0.1992,0.2073,0.2295,0.2232,0.2247,0.2119,0.2122,0.2125,0.2332,0,0.1544,0.1588,0.1615,0.1661,0.1689,0.1723,0.1758,0.1797,0.1836,0.1892,0.192,0.1977,0.1937,0.1976,0.202,0.2101,0.2163,0.2061,0.2222,0.2227,0.2163,0.2266,0.2047,0.2205,0.2351,0.2354,0.2356,0,0.155,0.1583,0.1627,0.1691,0.1706,0.1732,0.1802,0.184,0.1917,0.1952,0.2004,0.2043,0.2135,0.2092,0.2243,0.2185,0.224,0.2288,0.2297,0.2227,0.2198,0.2162,0.2235,0.2389,0.2386,0.2384,0.2382,0,0.1531,0.1593,0.1629,0.165,0.1718,0.1744,0.1783,0.1854,0.1906,0.201,0.2081,0.2157,0.2251,0.231,0.2406,0.2346,0.2584,0.2514,0.2505,0.2503,0.2339,0.2316,0.2617,0.2616,0.2616,0.2615,0.2615,0,0.1539,0.1568,0.1621,0.1642,0.1683,0.1737,0.1801,0.1848,0.1952,0.2039,0.2115,0.2214,0.2316,0.2453,0.2479,0.2577,0.265,0.2539,0.2557,0.2353,0.233,0.2487,0.247,0.2623,0.2621,0.262,0.2618,0,0.1521,0.1558,0.1597,0.1659,0.1675,0.1705,0.1802,0.1864,0.1967,0.2096,0.2149,0.2322,0.2488,0.2587,0.2743,0.2703,0.2781,0.2791,0.2555,0.2538,0.2631,0.2614,0.2792,0.2792,0.2791,0.2791,0.2791,0,0.1519,0.1535,0.1587,0.1614,0.1643,0.1699,0.1748,0.1846,0.1926,0.215,0.2222,0.2442,0.2551,0.2763,0.276,0.2823,0.2848,0.2648,0.2458,0.2652,0.2652,0.2635,0.2619,0.2289,0.2285,0.2282,0.2279,0,0.1514,0.1526,0.1562,0.1606,0.1651,0.1707,0.1791,0.1852,0.2,0.2106,0.2284,0.2396,0.2588,0.256,0.2657,0.2638,0.2606,0.2574,0.289,0.2255,0.2188,0.2184,0.2183,0.2247,0.225,0.2253,0.2254,0.2256,0.151,0.1522,0.1568,0.1613,0.166,0.1726,0.1764,0.1868,0.1969,0.2089,0.2212,0.2275,0.2348,0.2347,0.2333,0.2321,0.2459,0.2329,0.2336,0.2348,0.2229,0.2162,0.2197,0.22,0.2202,0.2204,0.2206,0,0.1504,0.1536,0.158,0.1631,0.1674,0.1708,0.1801,0.1804,0.1889,0.1972,0.2032,0.1873,0.1892,0.198,0.1907,0.1925,0.1867,0.1851,0.1748,0.1782,0.1812,0.166,0.1481,0.1478,0.1476,0.1474,0,0,0.1513,0.155,0.1574,0.1638,0.1673,0.1703,0.1744,0.1709,0.1735,0.1687,0.1664,0.1747,0.1891,0.1627,0.1629,0.1551,0.1644,0.1492,0.2078,0.1989,0.2015,0.2099,0.1906,0,0,0,0,0]},{"header":{"parameterUnit":"m.s-1","parameterCategory":2,"la1":30.2991,"la2":30.254,"lo1":-89.0895,"lo2":-89.0444,"dy":0.0017,"dx":0.0017,"nx":28,"ny":28,"refTime":"2024-03-31T03:00:00:Z","depth":"2","parameterNumber":3,"parameterNumberName":"V-component_of_CURRENTS"},"data":[0,0,0,0,0,0,0,0,0,0,0,0,0,0,0,0,0,0,0,0,0,0,0,0,0,0,0,0,0,0,0,0,0,0,0,0,0,0,0,0,0,0,0,0,0,0,0,0,0,0,0,0,0,0,0,0,0,0,-0.0156,-0.0157,0,-0.021,-0.0211,-0.0211,-0.0244,-0.0244,-0.0244,-0.0244,-0.0326,-0.0328,-0.033,0,0,0,0,0,0,0,0,0,0,0,0,0,-0.01,-0.01,-0.0156,-0.0157,-0.0158,-0.021,-0.0211,-0.0211,-0.0243,-0.0244,-0.0244,-0.0244,-0.0325,-0.0327,-0.033,0,0,0,0,0,0,0,0,0,0,0,0,0,-0.0136,-0.0101,-0.0156,-0.018,-0.0183,-0.021,-0.0211,-0.0212,-0.0243,-0.0244,-0.0244,-0.0244,-0.0324,-0.0327,-0.033,-0.0344,0,0,-0.0339,-0.0341,0,0,0,0,0,0,0,0,-0.0134,-0.0138,-0.0176,-0.0179,-0.0182,-0.0221,-0.0221,-0.0257,-0.0243,-0.022,-0.0244,-0.0244,-0.0293,-0.0299,-0.0307,-0.0348,-0.0351,-0.034,-0.0341,-0.0343,-0.0344,0,0,0,0,0,0,0,-0.0131,-0.0136,-0.0178,-0.0177,-0.018,-0.0194,-0.02,-0.0228,-0.0255,-0.0222,-0.0225,-0.0231,-0.0295,-0.0304,-0.031,-0.0352,-0.0339,-0.0342,-0.0344,-0.0345,-0.0408,-0.0407,0,0,0,0,0,0,-0.0124,-0.0133,-0.0176,-0.0179,-0.0158,-0.0195,-0.0201,-0.0208,-0.0254,-0.0261,-0.0231,-0.0232,-0.0299,-0.0306,-0.0313,-0.0325,-0.0343,-0.0346,-0.0347,-0.0408,-0.0407,-0.0407,0,0,0,0,0,0,-0.0122,-0.0127,-0.0174,-0.0158,-0.0165,-0.0196,-0.0203,-0.0209,-0.0217,-0.026,-0.0268,-0.0233,-0.03,-0.0309,-0.0338,-0.0329,-0.0347,-0.035,-0.0408,-0.0408,-0.0407,-0.0354,0,0,0,0,0,0,-0.012,-0.0126,-0.0125,-0.0157,-0.0165,-0.0183,-0.0203,-0.0209,-0.022,-0.0223,-0.0265,-0.0273,-0.03,-0.0334,-0.0341,-0.0333,-0.0352,-0.0408,-0.0408,-0.0407,-0.0356,-0.0352,-0.0348,0,0,0,0,0,-0.0118,-0.0115,-0.0125,-0.013,-0.0164,-0.0182,-0.0187,-0.0211,-0.022,-0.022,-0.0252,-0.0271,-0.0337,-0.0336,-0.0345,-0.0338,-0.0408,-0.0408,-0.0408,-0.0357,-0.0353,-0.0348,0,0,0,0,0,0,-0.0088,-0.0119,-0.013,-0.0136,-0.0154,-0.0188,-0.0189,-0.0206,-0.0231,-0.0232,-0.0274,-0.0285,-0.0305,-0.0331,-0.0329,-0.0355,-0.0374,-0.0375,-0.0332,-0.0328,-0.0325,-0.0311,-0.0355,0,0,0,0,0,-0.0081,-0.0087,-0.0118,-0.012,-0.0128,-0.0157,-0.0166,-0.0181,-0.0209,-0.0219,-0.025,-0.0282,-0.0311,-0.0327,-0.0354,-0.0372,-0.0387,-0.0372,-0.0368,-0.0364,-0.036,-0.0384,-0.0381,-0.0406,-0.0406,-0.0406,0,0,-0.007,-0.0087,-0.0091,-0.0114,-0.0129,-0.0134,-0.0162,-0.0171,-0.0175,-0.0225,-0.0237,-0.027,-0.0313,-0.0331,-0.0342,-0.0351,-0.0362,-0.0364,-0.0361,-0.0358,-0.0383,-0.038,-0.0378,-0.0406,-0.0406,-0.0406,0,0,-0.0049,-0.0065,-0.0063,-0.0075,-0.0094,-0.0112,-0.0112,-0.0141,-0.0153,-0.0171,-0.0207,-0.0235,-0.0277,-0.0305,-0.0326,-0.0319,-0.0341,-0.0325,-0.0296,-0.0319,-0.0317,-0.0316,-0.0314,-0.0313,-0.0323,-0.0323,-0.0323,0,-0.0033,-0.0036,-0.0063,-0.0062,-0.0067,-0.0098,-0.0093,-0.0109,-0.0144,-0.0154,-0.0166,-0.023,-0.0263,-0.0293,-0.0289,-0.0309,-0.0319,-0.0308,-0.0313,-0.0312,-0.0312,-0.0311,-0.031,-0.0321,-0.0321,-0.0321,-0.0322,0,-0.0015,-0.0013,-0.001,-0.002,-0.0029,-0.0027,-0.0054,-0.0062,-0.008,-0.0101,-0.013,-0.0179,-0.0215,-0.023,-0.0259,-0.0272,-0.0277,-0.0304,-0.0321,-0.0306,-0.0306,-0.0306,-0.0317,-0.0318,-0.0319,-0.0319,0,0,0.0012,0.0005,0.0007,0.0011,-0.0005,-0.0012,-0.0013,-0.0029,-0.0027,-0.0064,-0.0064,-0.0125,-0.0149,-0.0174,-0.0214,-0.0238,-0.0237,-0.0264,-0.0266,-0.0255,-0.0268,-0.0321,-0.0326,-0.0266,-0.0266,-0.0266,-0.0262,0,0.0037,0.0052,0.0038,0.0054,0.006,0.0036,0.0035,0.0017,0.0002,-0.0002,-0.0055,-0.0065,-0.0128,-0.0131,-0.0172,-0.0214,-0.0238,-0.0234,-0.0291,-0.0292,-0.0336,-0.0329,-0.0288,-0.0287,-0.0263,-0.0263,-0.0263,0,0.0059,0.0066,0.0087,0.009,0.009,0.0095,0.0091,0.009,0.0072,0.0065,0.0037,0.0008,-0.0027,-0.0075,-0.0156,-0.0149,-0.0203,-0.0245,-0.0246,-0.0317,-0.0347,-0.0303,-0.0288,-0.0264,-0.0264,-0.0264,-0.0264,0,0.0087,0.01,0.0119,0.012,0.0118,0.0123,0.0124,0.0111,0.0136,0.0126,0.0168,0.0082,0.0106,-0.0009,-0.009,-0.0119,-0.0166,-0.0218,-0.0321,-0.0324,-0.0311,-0.0314,-0.0279,-0.0279,-0.0279,-0.0279,-0.0279,0,0.0118,0.0133,0.0136,0.0147,0.0171,0.0157,0.0192,0.0181,0.0213,0.0274,0.0217,0.0253,0.013,0.009,-0.0047,-0.0171,-0.0134,-0.0312,-0.0333,-0.0291,-0.0292,-0.0298,-0.03,-0.0279,-0.0279,-0.0279,-0.0279,0,0.0146,0.0149,0.0171,0.018,0.0187,0.0205,0.0259,0.0301,0.0324,0.0416,0.0438,0.0423,0.0344,0.0209,0.0065,-0.007,-0.0216,-0.0268,-0.0199,-0.0215,-0.0371,-0.037,-0.0402,-0.0404,-0.0406,-0.0407,-0.0408,0,0.0162,0.0177,0.0199,0.0233,0.0244,0.0281,0.0326,0.0349,0.0421,0.0514,0.0579,0.0554,0.0507,0.0276,0.0049,-0.0189,-0.0226,-0.0299,-0.038,-0.0369,-0.0386,-0.0383,-0.038,-0.0321,-0.0321,-0.0322,-0.0322,0,0.0199,0.0206,0.0227,0.0298,0.035,0.0416,0.0492,0.0546,0.0615,0.0691,0.0758,0.0721,0.0532,0.0293,0.0004,-0.0165,-0.0275,-0.0319,-0.0299,-0.0317,-0.0299,-0.0314,-0.0312,-0.0325,-0.0324,-0.0324,-0.0324,-0.0324,0.0231,0.0257,0.0306,0.0371,0.0451,0.0556,0.0602,0.068,0.077,0.0844,0.0836,0.0787,0.0574,0.0157,-0.0074,-0.0298,-0.0328,-0.0423,-0.0418,-0.0414,-0.0427,-0.0416,-0.0462,-0.0463,-0.0463,-0.0464,-0.0464,0,0.0267,0.0321,0.0391,0.0472,0.0567,0.0613,0.073,0.0737,0.0808,0.0872,0.0872,0.0673,0.0427,0.0186,-0.0141,-0.0372,-0.0363,-0.0448,-0.0375,-0.0372,-0.0369,-0.0377,-0.04,-0.04,-0.04,-0.0401,0,0,0.0298,0.0363,0.0399,0.056,0.064,0.0741,0.08,0.0784,0.0816,0.0813,0.0818,0.0733,0.0489,0.0256,-0.0028,-0.0202,-0.024,-0.0245,-0.0276,-0.0153,-0.0147,-0.0337,-0.0345,0,0,0,0,0]}],[{"header":{"parameterUnit":"m.s-1","parameterCategory":2,"la1":30.2991,"la2":30.254,"lo1":-89.0895,"lo2":-89.0444,"dy":0.0017,"dx":0.0017,"nx":28,"ny":28,"refTime":"2024-03-31T03:00:00:Z","depth":"4","parameterNumber":2,"parameterNumberName":"U-component_of_CURRENTS"},"data":[0,0,0,0,0,0,0,0,0,0,0,0,0,0,0,0,0,0,0,0,0,0,0,0,0,0,0,0,0,0,0,0,0,0,0,0,0,0,0,0,0,0,0,0,0,0,0,0,0,0,0,0,0,0,0,0,0,0,0.0934,0.0934,0,0.0977,0.0977,0.0978,0.1024,0.1025,0.1026,0.1026,0.1064,0.1064,0.1064,0,0,0,0,0,0,0,0,0,0,0,0,0,0.0872,0.0873,0.0934,0.0934,0.0935,0.0977,0.0978,0.0978,0.1024,0.1025,0.1026,0.1027,0.1064,0.1064,0.1064,0,0,0,0,0,0,0,0,0,0,0,0,0,0.0905,0.0873,0.0934,0.0964,0.0967,0.0977,0.0978,0.0978,0.1024,0.1025,0.1026,0.1027,0.1064,0.1064,0.1064,0.1045,0,0,0.1066,0.1066,0,0,0,0,0,0,0,0,0.0903,0.0907,0.0959,0.0962,0.0965,0.0997,0.097,0.1001,0.1024,0.1001,0.1026,0.1028,0.1041,0.1043,0.1048,0.1047,0.1049,0.1066,0.1066,0.1066,0.1067,0,0,0,0,0,0,0,0.0901,0.0905,0.095,0.0959,0.0963,0.0969,0.0975,0.0976,0.1013,0.1003,0.1007,0.1013,0.1043,0.1047,0.1049,0.1049,0.1066,0.1066,0.1067,0.1067,0.112,0.1121,0,0,0,0,0,0,0.0897,0.0903,0.0949,0.0951,0.0937,0.0969,0.0976,0.0985,0.1014,0.1019,0.1012,0.1015,0.1046,0.1048,0.105,0.1102,0.1066,0.1067,0.1067,0.1119,0.112,0.1121,0,0,0,0,0,0,0.0895,0.0901,0.0947,0.0929,0.0935,0.0969,0.0979,0.0985,0.1012,0.102,0.1026,0.1036,0.1047,0.105,0.1076,0.1101,0.1067,0.1067,0.1117,0.1119,0.1121,0.1159,0,0,0,0,0,0,0.0894,0.09,0.0912,0.0929,0.0936,0.0967,0.0978,0.0985,0.1013,0.1018,0.1042,0.1045,0.1048,0.1076,0.1077,0.1101,0.1068,0.1116,0.1118,0.112,0.1156,0.1162,0.1167,0,0,0,0,0,0.0891,0.0901,0.0913,0.0919,0.095,0.0968,0.0973,0.0999,0.1014,0.1027,0.1049,0.1046,0.109,0.1077,0.1078,0.1103,0.1115,0.1117,0.112,0.1154,0.1161,0.1167,0,0,0,0,0,0,0.0879,0.0907,0.092,0.0938,0.0959,0.0977,0.0992,0.1008,0.1035,0.1047,0.1054,0.1059,0.1092,0.1091,0.1076,0.1126,0.1104,0.1107,0.113,0.1136,0.1141,0.1145,0.1068,0,0,0,0,0,0.0881,0.09,0.0923,0.094,0.0951,0.0975,0.0988,0.1008,0.1029,0.1043,0.1062,0.1082,0.1098,0.1113,0.1123,0.1146,0.1159,0.1165,0.117,0.1175,0.1179,0.1212,0.122,0.1129,0.1129,0.1129,0,0,0.0882,0.0899,0.0911,0.0939,0.0958,0.0973,0.0987,0.1014,0.1034,0.1041,0.108,0.1098,0.1107,0.1138,0.1153,0.1144,0.1213,0.1178,0.1181,0.1184,0.1215,0.1224,0.1232,0.1131,0.1131,0.1131,0,0,0.0883,0.0908,0.0922,0.094,0.0972,0.0986,0.0997,0.1029,0.1055,0.1088,0.1102,0.1137,0.116,0.1179,0.1188,0.1225,0.1235,0.1233,0.1266,0.1298,0.1305,0.1312,0.1363,0.1374,0.124,0.124,0.124,0,0.0883,0.0901,0.0929,0.0943,0.0957,0.0992,0.1005,0.1032,0.1072,0.1098,0.1108,0.1171,0.1179,0.1221,0.1239,0.1237,0.1264,0.1241,0.1304,0.1311,0.1317,0.1368,0.1379,0.1242,0.1242,0.1242,0.1242,0,0.089,0.0908,0.0917,0.0947,0.0968,0.0985,0.1022,0.1061,0.1097,0.1124,0.1186,0.1212,0.1256,0.1264,0.1263,0.1317,0.1326,0.1303,0.1287,0.1329,0.138,0.1391,0.1245,0.1245,0.1244,0.1243,0,0,0.0874,0.0913,0.0917,0.093,0.097,0.0987,0.1033,0.1078,0.1122,0.1174,0.1228,0.127,0.1306,0.1319,0.1336,0.1364,0.1436,0.1359,0.136,0.1408,0.153,0.1417,0.1419,0.1426,0.1428,0.1429,0.1556,0,0.0868,0.0887,0.0912,0.0935,0.0945,0.0995,0.1035,0.1089,0.1143,0.1208,0.1258,0.1319,0.132,0.1364,0.1391,0.1434,0.1464,0.1405,0.1484,0.1487,0.1379,0.1426,0.1434,0.1564,0.1567,0.1569,0.157,0,0.0857,0.0874,0.0891,0.0932,0.0945,0.0977,0.1056,0.109,0.1185,0.1241,0.1318,0.1366,0.1453,0.1428,0.1535,0.1503,0.1518,0.1536,0.1541,0.1425,0.1392,0.1509,0.159,0.1589,0.1587,0.1586,0.1585,0,0.0814,0.0853,0.0866,0.088,0.0939,0.098,0.1018,0.1108,0.116,0.1275,0.135,0.144,0.1515,0.1558,0.1609,0.1591,0.1696,0.1675,0.1586,0.158,0.1628,0.1619,0.1715,0.1715,0.1715,0.1714,0.1714,0,0.0771,0.0784,0.0861,0.0865,0.0916,0.0961,0.1018,0.1096,0.1199,0.1273,0.137,0.1449,0.1549,0.1619,0.1641,0.1659,0.1733,0.1604,0.16,0.1645,0.1636,0.1637,0.1627,0.1719,0.1718,0.1717,0.1716,0,0.0697,0.0744,0.0765,0.0847,0.0892,0.092,0.1022,0.106,0.1189,0.1297,0.1353,0.1495,0.1593,0.1662,0.1738,0.1701,0.1723,0.169,0.1761,0.1758,0.1589,0.1579,0.1645,0.1642,0.1639,0.1637,0.1635,0,0.066,0.0661,0.0749,0.0776,0.0818,0.0877,0.0925,0.1051,0.1092,0.1311,0.1351,0.1504,0.1582,0.1617,0.1673,0.172,0.1674,0.1696,0.1614,0.1589,0.1581,0.1575,0.1568,0.1631,0.1631,0.163,0.1629,0,0.0574,0.0606,0.062,0.0699,0.0759,0.0804,0.0881,0.0928,0.1078,0.1217,0.1343,0.1427,0.1509,0.1555,0.1585,0.1603,0.17,0.1668,0.1673,0.1597,0.1573,0.1566,0.1563,0.162,0.1622,0.1622,0.1623,0,0.0509,0.0506,0.0547,0.0606,0.0678,0.0733,0.0775,0.0851,0.0936,0.1187,0.1213,0.1376,0.149,0.1493,0.1525,0.1536,0.1517,0.148,0.1494,0.1505,0.1393,0.1339,0.1321,0,0,0,0,0,0.0449,0.0437,0.0464,0.053,0.0591,0.0657,0.0754,0.0796,0.0965,0.1027,0.113,0.1209,0.131,0.1356,0.134,0.1447,0.1504,0.1422,0.1462,0.157,0.1581,0.1458,0,0,0,0,0,0,0.0402,0.0407,0.0428,0.0461,0.05,0.058,0.0648,0.0758,0.0773,0.0952,0.0978,0.1138,0.1199,0.1306,0.1317,0.1337,0.1341,0.1511,0.1508,0.1565,0.1574,0.1582,0.146,0,0,0,0,0]},{"header":{"parameterUnit":"m.s-1","parameterCategory":2,"la1":30.2991,"la2":30.254,"lo1":-89.0895,"lo2":-89.0444,"dy":0.0017,"dx":0.0017,"nx":28,"ny":28,"refTime":"2024-03-31T03:00:00:Z","depth":"4","parameterNumber":3,"parameterNumberName":"V-component_of_CURRENTS"},"data":[0,0,0,0,0,0,0,0,0,0,0,0,0,0,0,0,0,0,0,0,0,0,0,0,0,0,0,0,0,0,0,0,0,0,0,0,0,0,0,0,0,0,0,0,0,0,0,0,0,0,0,0,0,0,0,0,0,0,-0.0198,-0.0198,0,-0.0223,-0.0223,-0.0224,-0.0247,-0.0248,-0.0248,-0.0248,-0.0297,-0.0298,-0.0299,0,0,0,0,0,0,0,0,0,0,0,0,0,-0.0183,-0.0183,-0.0198,-0.0198,-0.0198,-0.0223,-0.0223,-0.0224,-0.0247,-0.0248,-0.0248,-0.0248,-0.0297,-0.0298,-0.0299,0,0,0,0,0,0,0,0,0,0,0,0,0,-0.0197,-0.0183,-0.0198,-0.0213,-0.0215,-0.0223,-0.0223,-0.0224,-0.0247,-0.0248,-0.0248,-0.0249,-0.0297,-0.0298,-0.03,-0.03,0,0,-0.0304,-0.0305,0,0,0,0,0,0,0,0,-0.0196,-0.0197,-0.0211,-0.0212,-0.0214,-0.0233,-0.0236,-0.025,-0.0247,-0.0235,-0.0248,-0.0249,-0.0278,-0.0281,-0.0284,-0.0302,-0.0304,-0.0304,-0.0305,-0.0306,-0.0306,0,0,0,0,0,0,0,-0.0195,-0.0196,-0.0208,-0.0211,-0.0213,-0.0224,-0.0226,-0.0239,-0.0254,-0.0236,-0.0238,-0.0241,-0.0279,-0.0282,-0.0285,-0.0305,-0.0304,-0.0306,-0.0307,-0.0307,-0.0344,-0.0344,0,0,0,0,0,0,-0.0191,-0.0195,-0.0207,-0.0208,-0.0206,-0.0223,-0.0226,-0.0226,-0.0253,-0.0257,-0.024,-0.0242,-0.028,-0.0283,-0.0287,-0.0298,-0.0306,-0.0307,-0.0308,-0.0343,-0.0344,-0.0344,0,0,0,0,0,0,-0.019,-0.0192,-0.0206,-0.0203,-0.0205,-0.0223,-0.0223,-0.0226,-0.0236,-0.0256,-0.0261,-0.0247,-0.028,-0.0285,-0.0304,-0.03,-0.0308,-0.0309,-0.0343,-0.0343,-0.0344,-0.0315,0,0,0,0,0,0,-0.019,-0.0191,-0.0192,-0.0202,-0.0205,-0.0212,-0.0223,-0.0227,-0.0237,-0.0239,-0.0263,-0.0268,-0.0281,-0.0301,-0.0305,-0.0302,-0.0311,-0.0343,-0.0343,-0.0344,-0.0315,-0.0314,-0.0312,0,0,0,0,0,-0.0189,-0.0186,-0.0191,-0.0193,-0.0205,-0.0212,-0.0214,-0.0228,-0.0237,-0.0239,-0.0257,-0.0268,-0.0305,-0.0303,-0.0307,-0.0305,-0.0343,-0.0343,-0.0344,-0.0316,-0.0314,-0.0312,0,0,0,0,0,0,-0.0181,-0.0189,-0.0195,-0.0195,-0.0204,-0.0216,-0.022,-0.0229,-0.0245,-0.0249,-0.0269,-0.0275,-0.029,-0.0302,-0.03,-0.0316,-0.0325,-0.0326,-0.0303,-0.0301,-0.0299,-0.0277,-0.0312,0,0,0,0,0,-0.0178,-0.0179,-0.0189,-0.019,-0.0193,-0.0207,-0.0213,-0.0221,-0.0235,-0.0242,-0.0259,-0.0278,-0.0293,-0.0301,-0.0317,-0.0325,-0.0342,-0.0327,-0.0325,-0.0324,-0.0309,-0.0325,-0.0323,-0.0344,-0.0344,-0.0344,0,0,-0.0176,-0.018,-0.0181,-0.0188,-0.0196,-0.0194,-0.0212,-0.0218,-0.0214,-0.0245,-0.025,-0.0274,-0.0295,-0.0305,-0.0312,-0.0315,-0.0333,-0.0324,-0.0322,-0.0308,-0.0325,-0.0323,-0.0321,-0.0344,-0.0344,-0.0344,0,0,-0.0168,-0.0174,-0.0171,-0.0174,-0.0183,-0.0188,-0.019,-0.0203,-0.0209,-0.0219,-0.0239,-0.0258,-0.0283,-0.0292,-0.0301,-0.0299,-0.0325,-0.031,-0.028,-0.0296,-0.0294,-0.0293,-0.0336,-0.0338,-0.0306,-0.0306,-0.0306,0,-0.0166,-0.0156,-0.0172,-0.0166,-0.0159,-0.0184,-0.017,-0.018,-0.0198,-0.0193,-0.0217,-0.0246,-0.0272,-0.0271,-0.0276,-0.0293,-0.0316,-0.0286,-0.0293,-0.0291,-0.029,-0.0335,-0.0338,-0.0305,-0.0305,-0.0305,-0.0305,0,-0.0151,-0.0142,-0.0139,-0.0135,-0.0134,-0.0127,-0.0136,-0.0137,-0.015,-0.0159,-0.0168,-0.0207,-0.0219,-0.0237,-0.0259,-0.026,-0.0287,-0.0291,-0.0295,-0.0286,-0.0334,-0.0338,-0.0303,-0.0303,-0.0304,-0.0304,0,0,-0.0145,-0.013,-0.0128,-0.0105,-0.011,-0.0099,-0.0093,-0.0082,-0.0066,-0.0102,-0.0088,-0.0129,-0.0153,-0.0165,-0.0198,-0.0217,-0.025,-0.025,-0.0252,-0.0288,-0.0308,-0.0295,-0.0298,-0.0256,-0.0255,-0.0255,-0.0354,0,-0.0124,-0.0093,-0.0094,-0.0054,-0.0033,-0.0037,-0.002,-0.0017,-0.003,-0.0029,-0.0069,-0.0083,-0.0125,-0.014,-0.0163,-0.0231,-0.0254,-0.0224,-0.0315,-0.0317,-0.0302,-0.0299,-0.0255,-0.0357,-0.0358,-0.0358,-0.0359,0,-0.0106,-0.008,-0.0039,0.0014,0.0024,0.004,0.0079,0.0091,0.008,0.0065,0.0041,-0.0002,-0.0047,-0.0083,-0.0178,-0.016,-0.0224,-0.0277,-0.0282,-0.0275,-0.0309,-0.0362,-0.0366,-0.0365,-0.0365,-0.0364,-0.0364,0,-0.0077,-0.0035,0.0008,0.0022,0.0064,0.0091,0.0114,0.0121,0.0137,0.0116,0.0101,0.0053,0.0002,-0.0064,-0.0192,-0.0185,-0.0305,-0.0307,-0.0352,-0.0355,-0.035,-0.0351,-0.0352,-0.0352,-0.0351,-0.0351,-0.0351,0,-0.0046,-0.0008,0.0028,0.0055,0.0119,0.0135,0.0193,0.0197,0.0199,0.021,0.0149,0.012,0.0004,-0.0087,-0.0177,-0.0288,-0.0296,-0.0342,-0.0368,-0.0341,-0.0339,-0.0355,-0.0354,-0.0355,-0.0354,-0.0353,-0.0353,0,-0.0023,-0.0004,0.0058,0.0115,0.0132,0.0181,0.0236,0.0262,0.0258,0.0259,0.0245,0.015,0.0036,-0.0084,-0.0222,-0.028,-0.0378,-0.0412,-0.0401,-0.0426,-0.0422,-0.0419,-0.0456,-0.0456,-0.0456,-0.0457,-0.0457,0,-0.001,0.002,0.0096,0.0126,0.0152,0.022,0.025,0.0279,0.0292,0.0273,0.0255,0.0154,0.0083,-0.011,-0.023,-0.0387,-0.0401,-0.046,-0.0405,-0.0406,-0.0428,-0.0424,-0.0421,-0.0457,-0.0457,-0.0457,-0.0457,0,0.0018,0.0043,0.0093,0.0145,0.0186,0.0247,0.0288,0.0302,0.0322,0.0325,0.0268,0.0179,0.0049,-0.0097,-0.0232,-0.034,-0.042,-0.0461,-0.046,-0.0409,-0.0408,-0.0428,-0.0424,-0.0457,-0.0457,-0.0457,-0.0457,0,0.0029,0.0065,0.0108,0.0158,0.0202,0.0228,0.0278,0.029,0.0312,0.0298,0.0277,0.0158,0.009,-0.0074,-0.0197,-0.0303,-0.0309,-0.033,-0.0336,-0.0338,-0.0263,-0.0241,-0.0254,0,0,0,0,0,0.003,0.0052,0.0104,0.0153,0.0194,0.0211,0.0264,0.0304,0.0329,0.03,0.03,0.0194,0.0033,-0.0052,-0.015,-0.0208,-0.0346,-0.0327,-0.0378,-0.0459,-0.0459,-0.0388,0,0,0,0,0,0,0.0021,0.0065,0.0095,0.0119,0.014,0.0178,0.0208,0.0239,0.0236,0.0256,0.0168,0.0169,0.0,0.0082,-0.0158,-0.019,-0.0233,-0.0394,-0.0396,-0.0459,-0.0459,-0.0459,-0.0386,0,0,0,0,0]}]]